[[{"header":{"parameterUnit":"m.s-1","parameterCategory":1,"la1":30.2991,"la2":30.254,"lo1":-89.0895,"lo2":-89.0444,"dy":0.0017,"dx":0.0017,"nx":28,"ny":28,"refTime":"2025-02-07T09:00:00:Z","depth":0,"parameterNumber":2,"parameterNumberName":"U-component_of_WINDS"},"data":[0,0,0,0,0,0,0,0,0,0,0,0,0,0,0,0,0,0,0,0,0,0,0,0,0,0,0,0,0,0,0,0,0,0,0,0,0,0,0,0,0,0,0,0,0,0,0,0,0,0,0,0,0,0,0,0,0,0,-1.0893,-1.0893,0,-1.0913,-1.0913,-1.0913,-1.0901,-1.09,-1.09,-1.0899,-1.0919,-1.092,-1.0921,0,0,0,0,0,0,0,0,0,0,0,0,0,-1.0846,-1.0846,-1.0893,-1.0893,-1.0894,-1.0913,-1.0913,-1.0913,-1.0901,-1.09,-1.09,-1.0899,-1.0919,-1.092,-1.0921,0,0,0,0,0,0,0,0,0,0,0,0,0,-1.0866,-1.0847,-1.0893,-1.089,-1.089,-1.0913,-1.0913,-1.0913,-1.0901,-1.09,-1.0899,-1.0899,-1.0918,-1.092,-1.0921,-1.0949,0,0,-1.0926,-1.0927,0,0,0,0,0,0,0,0,-1.0865,-1.0867,-1.089,-1.089,-1.089,-1.0903,-1.0903,-1.0925,-1.0901,-1.0897,-1.0899,-1.0898,-1.0915,-1.0916,-1.0922,-1.0949,-1.095,-1.0927,-1.0927,-1.0928,-1.0929,0,0,0,0,0,0,0,-1.0863,-1.0867,-1.0901,-1.089,-1.089,-1.0887,-1.0889,-1.0907,-1.091,-1.0897,-1.0896,-1.0899,-1.0914,-1.0921,-1.0922,-1.0951,-1.0926,-1.0928,-1.0929,-1.0929,-1.1001,-1.1002,0,0,0,0,0,0,-1.0862,-1.0866,-1.09,-1.0901,-1.0875,-1.0889,-1.0891,-1.09,-1.091,-1.0911,-1.09,-1.0898,-1.0918,-1.0921,-1.0923,-1.0955,-1.0928,-1.093,-1.0931,-1.1,-1.1001,-1.1002,0,0,0,0,0,0,-1.0861,-1.0865,-1.0899,-1.0883,-1.0887,-1.0891,-1.0901,-1.0901,-1.0907,-1.0912,-1.0912,-1.0905,-1.0918,-1.0921,-1.0942,-1.0955,-1.093,-1.0932,-1.0999,-1.1,-1.1002,-1.1019,0,0,0,0,0,0,-1.086,-1.0865,-1.0875,-1.0884,-1.0888,-1.0918,-1.0902,-1.0902,-1.091,-1.0908,-1.0917,-1.0918,-1.0917,-1.094,-1.0944,-1.0957,-1.0933,-1.0998,-1.0999,-1.1001,-1.1017,-1.1021,-1.1024,0,0,0,0,0,-1.0858,-1.088,-1.0876,-1.088,-1.0901,-1.0919,-1.0922,-1.092,-1.0911,-1.0921,-1.0924,-1.0918,-1.0954,-1.0942,-1.0946,-1.0961,-1.0997,-1.0999,-1.1001,-1.1016,-1.102,-1.1024,0,0,0,0,0,0,-1.0873,-1.0881,-1.0877,-1.0901,-1.091,-1.0917,-1.093,-1.0925,-1.0936,-1.0935,-1.0932,-1.0935,-1.0957,-1.0961,-1.0948,-1.0987,-1.0974,-1.0977,-1.0983,-1.0988,-1.0991,-1.0989,-1.0934,0,0,0,0,0,-1.0879,-1.0893,-1.0899,-1.092,-1.0924,-1.0927,-1.0934,-1.0933,-1.0941,-1.0945,-1.0949,-1.0958,-1.0971,-1.098,-1.0992,-1.1018,-1.102,-1.103,-1.1033,-1.1036,-1.1038,-1.1052,-1.1056,-1.1009,-1.1009,-1.1009,0,0,-1.0892,-1.0898,-1.0906,-1.0923,-1.0929,-1.0944,-1.093,-1.0945,-1.0956,-1.0947,-1.0967,-1.0971,-1.0981,-1.1004,-1.1015,-1.1008,-1.1052,-1.1039,-1.1041,-1.1042,-1.1055,-1.1059,-1.1063,-1.101,-1.101,-1.101,0,0,-1.0922,-1.0928,-1.0946,-1.0953,-1.0962,-1.0964,-1.0968,-1.0976,-1.0978,-1.0999,-1.0992,-1.1005,-1.1028,-1.1034,-1.1041,-1.1074,-1.1068,-1.1078,-1.1095,-1.1109,-1.1112,-1.1116,-1.1127,-1.1131,-1.1081,-1.1081,-1.1081,0,-1.0936,-1.0958,-1.0956,-1.0972,-1.098,-1.0972,-1.0991,-1.0997,-1.101,-1.1016,-1.1008,-1.1036,-1.1042,-1.1067,-1.1075,-1.1081,-1.1086,-1.1077,-1.1112,-1.1115,-1.1118,-1.1129,-1.1133,-1.1082,-1.1082,-1.1082,-1.1082,0,-1.0975,-1.099,-1.1003,-1.1016,-1.1025,-1.1042,-1.1043,-1.1053,-1.105,-1.1052,-1.1073,-1.108,-1.1093,-1.1099,-1.1097,-1.1124,-1.112,-1.1112,-1.1098,-1.1124,-1.1134,-1.1138,-1.1084,-1.1083,-1.1083,-1.1083,0,0,-1.1015,-1.1026,-1.1031,-1.1037,-1.1047,-1.1058,-1.1075,-1.1088,-1.1096,-1.1106,-1.112,-1.1139,-1.1132,-1.114,-1.1138,-1.115,-1.1175,-1.1141,-1.1141,-1.1147,-1.1204,-1.1209,-1.1214,-1.1172,-1.1172,-1.1173,-1.1203,0,-1.1045,-1.1074,-1.1073,-1.1101,-1.1114,-1.1107,-1.1122,-1.113,-1.1132,-1.1144,-1.1147,-1.116,-1.1151,-1.1155,-1.1166,-1.117,-1.1187,-1.1168,-1.1184,-1.1185,-1.1181,-1.1219,-1.1225,-1.1253,-1.1207,-1.1208,-1.1208,0,-1.1085,-1.1095,-1.1124,-1.1131,-1.1137,-1.115,-1.1162,-1.1173,-1.1182,-1.1183,-1.1191,-1.1188,-1.1205,-1.1191,-1.1215,-1.1202,-1.1208,-1.1211,-1.1212,-1.1213,-1.1197,-1.1221,-1.1262,-1.1266,-1.1215,-1.1214,-1.1214,0,-1.111,-1.1131,-1.1151,-1.1156,-1.1166,-1.1175,-1.118,-1.1187,-1.1195,-1.1206,-1.1211,-1.1223,-1.123,-1.1239,-1.1239,-1.123,-1.1263,-1.1249,-1.1264,-1.1264,-1.127,-1.127,-1.1313,-1.1276,-1.1276,-1.1276,-1.1276,0,-1.1144,-1.1161,-1.1162,-1.1174,-1.1194,-1.1193,-1.1212,-1.1216,-1.1223,-1.1235,-1.123,-1.1242,-1.1242,-1.1254,-1.1254,-1.1273,-1.1276,-1.1277,-1.1277,-1.1277,-1.1277,-1.1281,-1.1279,-1.1277,-1.1277,-1.1276,-1.1276,0,-1.1175,-1.1177,-1.1197,-1.1205,-1.1207,-1.1221,-1.1228,-1.1239,-1.1241,-1.1257,-1.1261,-1.1264,-1.1278,-1.1279,-1.1295,-1.1296,-1.1318,-1.1316,-1.1315,-1.1314,-1.1328,-1.1327,-1.1375,-1.1381,-1.1341,-1.1341,-1.1342,0,-1.1196,-1.1209,-1.1218,-1.1226,-1.1231,-1.1244,-1.1252,-1.1252,-1.126,-1.1271,-1.1281,-1.1294,-1.1305,-1.1328,-1.1331,-1.1344,-1.1341,-1.1357,-1.1343,-1.1343,-1.1341,-1.134,-1.1341,-1.136,-1.136,-1.1361,-1.1361,0,-1.1233,-1.1233,-1.1245,-1.1257,-1.1266,-1.1276,-1.1284,-1.1291,-1.1292,-1.1301,-1.1316,-1.1324,-1.134,-1.1354,-1.1366,-1.137,-1.1366,-1.1366,-1.1369,-1.137,-1.1368,-1.1368,-1.1322,-1.1364,-1.1364,-1.1364,-1.1364,-1.1363,-1.126,-1.1271,-1.1279,-1.1292,-1.1298,-1.1307,-1.1317,-1.1321,-1.1332,-1.1346,-1.1345,-1.136,-1.1368,-1.1384,-1.139,-1.1402,-1.1396,-1.1402,-1.1403,-1.1404,-1.1406,-1.1367,-1.1404,-1.1404,-1.1404,-1.1404,-1.1404,0,-1.1296,-1.1301,-1.1313,-1.1325,-1.1335,-1.133,-1.1339,-1.1348,-1.1362,-1.137,-1.138,-1.1396,-1.1409,-1.1414,-1.1426,-1.1435,-1.1433,-1.1438,-1.1437,-1.1438,-1.141,-1.1405,-1.1439,-1.1439,-1.1439,-1.1439,-1.1439,-1.1439,-1.1316,-1.1335,-1.1336,-1.1358,-1.1362,-1.1377,-1.1383,-1.139,-1.1396,-1.1414,-1.1425,-1.1428,-1.1435,-1.1447,-1.1459,-1.146,-1.1464,-1.147,-1.147,-1.1444,-1.144,-1.1437,-1.1432,-1.1471,-1.1471,-1.1497,-1.1498,-1.1498]},{"header":{"parameterUnit":"m.s-1","parameterCategory":1,"la1":30.2991,"la2":30.254,"lo1":-89.0895,"lo2":-89.0444,"dy":0.0017,"dx":0.0017,"nx":28,"ny":28,"refTime":"2025-02-07T09:00:00:Z","depth":0,"parameterNumber":3,"parameterNumberName":"V-component_of_WINDS"},"data":[0,0,0,0,0,0,0,0,0,0,0,0,0,0,0,0,0,0,0,0,0,0,0,0,0,0,0,0,0,0,0,0,0,0,0,0,0,0,0,0,0,0,0,0,0,0,0,0,0,0,0,0,0,0,0,0,0,0,0.9653,0.9653,0,0.9704,0.9704,0.9705,0.9728,0.9728,0.9728,0.9728,0.9783,0.9784,0.9786,0,0,0,0,0,0,0,0,0,0,0,0,0,0.9579,0.958,0.9653,0.9653,0.9654,0.9703,0.9704,0.9705,0.9729,0.9728,0.9728,0.9728,0.9782,0.9784,0.9786,0,0,0,0,0,0,0,0,0,0,0,0,0,0.9618,0.958,0.9653,0.9672,0.9674,0.9703,0.9704,0.9705,0.9729,0.9728,0.9728,0.9728,0.9782,0.9784,0.9786,0.9801,0,0,0.9793,0.9794,0,0,0,0,0,0,0,0,0.9616,0.9621,0.9668,0.967,0.9673,0.971,0.9698,0.9737,0.9729,0.9708,0.9728,0.9728,0.9759,0.9763,0.9773,0.9804,0.9806,0.9793,0.9795,0.9796,0.9796,0,0,0,0,0,0,0,0.9613,0.9619,0.9673,0.9669,0.9672,0.9679,0.9684,0.9706,0.9733,0.971,0.9711,0.9717,0.976,0.977,0.9774,0.9807,0.9793,0.9795,0.9797,0.9797,0.9854,0.9854,0,0,0,0,0,0,0.9607,0.9617,0.9671,0.9674,0.9644,0.968,0.9686,0.9698,0.9733,0.9738,0.9717,0.9718,0.9767,0.9771,0.9776,0.9796,0.9796,0.9798,0.9799,0.9853,0.9854,0.9854,0,0,0,0,0,0,0.9605,0.9612,0.9669,0.9646,0.9654,0.9681,0.9694,0.9699,0.9709,0.9738,0.9744,0.9722,0.9767,0.9773,0.9795,0.9798,0.9799,0.9801,0.9853,0.9854,0.9854,0.9837,0,0,0,0,0,0,0.9603,0.9611,0.9616,0.9646,0.9655,0.9686,0.9695,0.97,0.9713,0.9715,0.9745,0.975,0.9767,0.9791,0.9797,0.9802,0.9802,0.9853,0.9853,0.9854,0.9837,0.9836,0.9835,0,0,0,0,0,0.96,0.961,0.9617,0.9623,0.9662,0.9686,0.9692,0.9711,0.9713,0.9719,0.9738,0.9749,0.9797,0.9793,0.98,0.9805,0.9853,0.9853,0.9854,0.9837,0.9836,0.9836,0,0,0,0,0,0,0.9581,0.9614,0.9622,0.9641,0.9661,0.969,0.9699,0.9709,0.9729,0.973,0.9753,0.976,0.978,0.9795,0.979,0.9822,0.9826,0.9828,0.9811,0.9811,0.981,0.9806,0.9804,0,0,0,0,0,0.9579,0.9595,0.9623,0.9638,0.9647,0.9671,0.9682,0.9695,0.9717,0.9725,0.9746,0.9767,0.9787,0.98,0.982,0.9839,0.9847,0.9846,0.9845,0.9845,0.9846,0.9858,0.9858,0.9855,0.9855,0.9855,0,0,0.9575,0.9595,0.9604,0.9634,0.9651,0.9668,0.9678,0.9695,0.9708,0.9728,0.975,0.9766,0.9791,0.9812,0.9822,0.9825,0.9849,0.9845,0.9844,0.9846,0.9858,0.9859,0.9859,0.9855,0.9855,0.9855,0,0,0.9576,0.9593,0.9606,0.9623,0.9648,0.9663,0.9667,0.9695,0.9706,0.9728,0.9743,0.9759,0.9793,0.9811,0.9824,0.9832,0.9843,0.9838,0.9834,0.9846,0.9846,0.9846,0.9849,0.985,0.9839,0.9839,0.9839,0,0.9568,0.9593,0.9612,0.9629,0.9642,0.966,0.9675,0.969,0.972,0.9729,0.9732,0.9775,0.9793,0.9818,0.982,0.983,0.9835,0.9834,0.9844,0.9845,0.9845,0.9849,0.985,0.9838,0.9838,0.9838,0.9838,0,0.9583,0.96,0.9608,0.9636,0.9651,0.9666,0.9688,0.97,0.9712,0.9728,0.975,0.9773,0.9798,0.9805,0.9816,0.9832,0.9833,0.9839,0.9844,0.9844,0.9848,0.985,0.9837,0.9837,0.9837,0.9838,0,0,0.9573,0.9611,0.9614,0.9627,0.9656,0.967,0.9687,0.971,0.972,0.9741,0.9756,0.9784,0.979,0.9805,0.9819,0.9829,0.9835,0.9835,0.9836,0.9834,0.9854,0.9849,0.985,0.9842,0.9842,0.9843,0.9852,0,0.9579,0.9608,0.9626,0.9649,0.9665,0.9683,0.9697,0.9717,0.9732,0.9749,0.9767,0.9786,0.9793,0.9802,0.9813,0.9832,0.9839,0.9831,0.9857,0.9858,0.985,0.9852,0.9846,0.9854,0.9853,0.9853,0.9854,0,0.9589,0.9608,0.9632,0.9659,0.9667,0.968,0.9703,0.9719,0.9742,0.9752,0.9769,0.9783,0.9802,0.9805,0.9832,0.9826,0.9838,0.9849,0.985,0.9853,0.9856,0.9856,0.9857,0.9858,0.9856,0.9856,0.9856,0,0.958,0.9612,0.9631,0.9642,0.9673,0.9682,0.9696,0.9718,0.9731,0.9752,0.9761,0.9784,0.9796,0.9814,0.9834,0.9834,0.986,0.9864,0.987,0.9869,0.9874,0.9874,0.9878,0.9881,0.9881,0.9881,0.9881,0,0.9585,0.9599,0.9627,0.9639,0.9656,0.9676,0.9692,0.9708,0.9728,0.9743,0.976,0.9774,0.9799,0.9817,0.9833,0.9854,0.9859,0.9869,0.9873,0.9868,0.9866,0.9876,0.9876,0.9882,0.9881,0.9881,0.9881,0,0.9578,0.9597,0.9619,0.9647,0.9654,0.9665,0.969,0.9702,0.9718,0.9738,0.9743,0.9769,0.9791,0.9812,0.9842,0.9853,0.9873,0.9878,0.9865,0.9867,0.9872,0.9871,0.9882,0.9885,0.9886,0.9886,0.9886,0,0.958,0.9591,0.962,0.9631,0.9644,0.9662,0.9675,0.9696,0.9709,0.9736,0.9745,0.9768,0.9788,0.9822,0.9844,0.9866,0.9873,0.9875,0.9876,0.9871,0.9873,0.9873,0.9874,0.9875,0.9874,0.9874,0.9874,0,0.9581,0.959,0.9608,0.9629,0.9644,0.9662,0.9681,0.9689,0.9714,0.9728,0.975,0.9765,0.9795,0.9818,0.9843,0.9859,0.9871,0.9874,0.9876,0.9871,0.9863,0.9868,0.9864,0.9873,0.9873,0.9873,0.9874,0.9874,0.9578,0.9589,0.9611,0.9631,0.9647,0.9664,0.9677,0.9694,0.9713,0.9738,0.975,0.9772,0.9795,0.983,0.9846,0.9864,0.9867,0.9871,0.9872,0.9873,0.9871,0.9859,0.9869,0.9869,0.9869,0.9869,0.9869,0,0.9581,0.9596,0.9613,0.9639,0.9654,0.9663,0.9685,0.9697,0.9716,0.9737,0.9755,0.9781,0.9803,0.9826,0.985,0.9861,0.9867,0.9866,0.9866,0.9869,0.9867,0.9863,0.9861,0.9861,0.9861,0.9861,0.9861,0.9861,0.9584,0.9602,0.9614,0.9641,0.9657,0.9678,0.9689,0.9706,0.9722,0.9749,0.9767,0.9782,0.9804,0.983,0.9851,0.9857,0.9866,0.9863,0.9871,0.9869,0.9869,0.987,0.9866,0.9865,0.9865,0.9872,0.9872,0.9872]}]]